Tracking 27122 objects as of 24-Mar-2023
HD Live streaming from Space Station
objects crossing your sky now

USA 294

Track USA 294 now!
10-day predictions
USA 294 is classified as:


NORAD ID: 45110
Int'l Code: 2020-007A
Perigee: 548.2 km
Apogee: 562.1 km
Inclination: 70.0 °
Period: 95.6 minutes
Semi major axis: 6926 km
RCS: Unknown
Launch date: January 31, 2020
Source: United States (US)
Launch site: Rocket Lab Launch Complex (RLLC)

USA 294 (NROL-151) is a classified satellite launched by Rocket Lab for the U.S. National Reconnaissance Office.
Your satellite tracking list
Your tracking list is empty




NASA's NSSDC Master Catalog

Two Line Element Set (TLE):
1 45110U 20007A   23011.69845366 0.00019000  00000-0  12938-2 0    02
2 45110  70.0172 327.8801 0009991  99.6735 260.3265 15.06137919    02
Source of the keplerian elements: McCants